FW3855 Weather Reports


time (UTC)temp
F
wind
direction
speed
knots
gust
knots
rain 1hr
in
rain 24hr
in
rain mn
in
humidity
%
barometer
mb
20260831040005 79 176 3.5 13.0 0.00 0.00 0.00 42 1017.7
20260831035506 79 202 5.2 13.0 0.00 0.00 0.00 42 1017.7
20260831035004 79 125 5.2 11.3 0.00 0.00 0.00 42 1017.6
20260831034506 79 271 4.3 13.0 0.00 0.00 0.00 42 1017.7
20260831034005 79 169 5.2 13.0 0.00 0.00 0.00 43 1017.7
20260831033507 79 187 5.2 14.8 0.00 0.00 0.00 42 1017.8
20260831033004 79 226 5.2 14.8 0.00 0.00 0.00 42 1017.5
20260831032503 80 206 4.3 11.3 0.00 0.00 0.00 41 1017.5
20260831031002 80 166 4.3 9.6 0.00 0.00 0.00 43 1017.3
20260831030459 80 193 4.3 15.6 0.00 0.00 0.00 43 1017.3
20260831025958 80 172 4.3 15.6 0.00 0.00 0.00 44 1017.3
20260831025458 80 207 4.3 12.2 0.00 0.00 0.00 44 1017.2
20260831024959 80 220 4.3 12.2 0.00 0.00 0.00 44 1017.3
20260831024453 80 120 4.3 12.2 0.00 0.00 0.00 44 1017.2
20260831023949 80 203 4.3 16.5 0.00 0.00 0.00 43 1017.3
20260831023441 81 186 3.5 16.5 0.00 0.00 0.00 41 1017.2
20260831022935 81 195 3.5 12.2 0.00 0.00 0.00 39 1017.2
20260831022428 81 158 3.5 12.2 0.00 0.00 0.00 38 1017.0
20260831021923 82 144 3.5 20.9 0.00 0.00 0.00 37 1016.9
20260831021417 82 137 2.6 10.4 0.00 0.00 0.00 36 1016.8
20260831020911 83 141 2.6 9.6 0.00 0.00 0.00 37 1016.8
20260831020404 83 203 3.5 8.7 0.00 0.00 0.00 36 1016.9
20260831015906 84 222 4.3 14.8 0.00 0.00 0.00 35 1017.0
20260831015404 84 168 2.6 14.8 0.00 0.00 0.00 34 1017.0
20260831014907 85 181 1.7 7.0 0.00 0.00 0.00 30 1016.9
20260831014404 85 113 1.7 7.0 0.00 0.00 0.00 27 1016.9
20260831013900 86 217 2.6 9.6 0.00 0.00 0.00 23 1016.9
20260831013402 86 275 3.5 9.6 0.00 0.00 0.00 22 1016.8
20260831012900 87 206 3.5 8.7 0.00 0.00 0.00 22 1016.7
20260831012358 87 223 4.3 12.2 0.00 0.00 0.00 21 1016.8
20260831011856 87 242 4.3 12.2 0.00 0.00 0.00 21 1016.8
20260831011359 88 288 4.3 10.4 0.00 0.00 0.00 20 1016.9
20260831010857 88 253 4.3 9.6 0.00 0.00 0.00 20 1016.8
20260831010358 88 231 5.2 12.2 0.00 0.00 0.00 20 1017.0
20260831005857 88 262 6.1 13.0 0.00 0.00 0.00 20 1017.0
20260831005400 88 345 6.1 13.0 0.00 0.00 0.00 20 1017.0
20260831004856 88 233 5.2 13.0 0.00 0.00 0.00 19 1016.9
20260831004357 89 294 5.2 12.2 0.00 0.00 0.00 20 1016.9
20260831003857 89 264 5.2 9.6 0.00 0.00 0.00 19 1016.8
20260831003352 89 217 5.2 9.6 0.00 0.00 0.00 19 1016.8
20260831002845 89 218 5.2 15.6 0.00 0.00 0.00 19 1016.8
20260831002339 89 259 6.1 15.6 0.00 0.00 0.00 19 1016.5
20260831001833 89 285 6.1 13.0 0.00 0.00 0.00 20 1016.6
20260831001327 89 285 6.1 13.0 0.00 0.00 0.00 21 1016.6
20260831000821 89 216 5.2 12.2 0.00 0.00 0.00 20 1016.5
20260831000318 90 297 6.1 12.2 0.00 0.00 0.00 20 1016.4
20260830235305 90 237 6.1 15.6 0.00 0.00 0.00 19 1016.6
20260830234757 90 176 6.1 15.6 0.00 0.00 0.00 19 1016.7
20260830234251 91 257 4.3 13.9 0.00 0.00 0.00 17 1016.7
20260830233745 91 283 3.5 9.6 0.00 0.00 0.00 17 1016.7
20260830232733 91 195 4.3 13.0 0.00 0.00 0.00 17 1016.7
20260830232227 91 229 4.3 13.0 0.00 0.00 0.00 17 1016.6
20260830231216 91 330 4.3 12.2 0.00 0.00 0.00 17 1016.7
20260830230709 90 300 7.0 17.4 0.00 0.00 0.00 18 1016.8
20260830225657 90 271 7.8 16.5 0.00 0.00 0.00 17 1016.9
20260830225151 90 279 7.0 16.5 0.00 0.00 0.00 17 1017.0
20260830223634 91 290 4.3 12.2 0.00 0.00 0.00 16 1017.0
20260830223127 91 170 5.2 12.2 0.00 0.00 0.00 16 1017.0
20260830222621 91 293 6.1 18.2 0.00 0.00 0.00 17 1017.0
20260830222115 91 202 6.1 18.2 0.00 0.00 0.00 16 1017.0
20260830221610 92 139 4.3 11.3 0.00 0.00 0.00 17 1017.2
20260830220557 90 107 3.5 14.8 0.00 0.00 0.00 19 1017.4
20260830220051 89 136 4.3 14.8 0.00 0.00 0.00 21 1017.4
20260830215545 89 188 5.2 13.0 0.00 0.00 0.00 20 1017.5
20260830215039 90 276 6.1 13.0 0.00 0.00 0.00 19 1017.6
20260830214533 90 153 6.1 15.6 0.00 0.00 0.00 19 1017.6
20260830214027 91 141 2.6 13.0 0.00 0.00 0.00 18 1017.5
20260830213521 91 281 1.7 9.6 0.00 0.00 0.00 19 1017.6
20260830212004 88 179 4.3 16.5 0.00 0.00 0.00 20 1017.8
20260830211457 88 167 4.3 13.9 0.00 0.00 0.00 22 1017.7
20260830210951 88 261 4.3 10.4 0.00 0.00 0.00 21 1018.1
20260830205940 88 236 3.5 10.4 0.00 0.00 0.00 22 1018.1
20260830204933 88 155 6.1 13.0 0.00 0.00 0.00 20 1018.2
20260830204438 89 123 5.2 11.3 0.00 0.00 0.00 20 1018.3
20260830203935 88 277 4.3 12.2 0.00 0.00 0.00 21 1018.3
20260830203436 88 245 3.5 14.8 0.00 0.00 0.00 22 1018.4
20260830202934 88 210 4.3 14.8 0.00 0.00 0.00 23 1018.3
20260830202431 87 169 5.2 15.6 0.00 0.00 0.00 24 1018.3
20260830201431 88 204 2.6 13.0 0.00 0.00 0.00 28 1018.4
20260830200931 88 84 5.2 14.8 0.00 0.00 0.00 29 1018.8
20260830200431 88 235 6.1 19.1 0.00 0.00 0.00 28 1018.6
20260830195931 89 100 5.2 19.1 0.00 0.00 0.00 27 1018.9
20260830195430 88 80 5.2 16.5 0.00 0.00 0.00 28 1018.4
20260830194930 89 164 4.3 16.5 0.00 0.00 0.00 26 1018.5
20260830194429 89 327 4.3 15.6 0.00 0.00 0.00 26 1018.5
20260830193922 89 135 5.2 16.5 0.00 0.00 0.00 25 1018.8
20260830193424 89 249 5.2 16.5 0.00 0.00 0.00 25 1018.9
20260830192923 89 55 4.3 12.2 0.00 0.00 0.00 26 1019.0
20260830192422 88 112 4.3 16.5 0.00 0.00 0.00 27 1019.0
20260830191422 88 186 6.1 16.5 0.00 0.00 0.00 26 1019.1
20260830190424 88 149 4.3 15.6 0.00 0.00 0.00 25 1019.3
20260830185923 88 257 5.2 14.8 0.00 0.00 0.00 26 1019.3
20260830185418 88 195 6.1 14.8 0.00 0.00 0.00 26 1019.1
20260830184918 87 164 5.2 14.8 0.00 0.00 0.00 27 1019.3
20260830183419 87 216 6.1 15.6 0.00 0.00 0.00 27 1019.4
20260830182917 88 129 6.1 14.8 0.00 0.00 0.00 26 1019.6
20260830182417 87 96 5.2 14.8 0.00 0.00 0.00 26 1019.7
20260830181918 87 257 4.3 13.9 0.00 0.00 0.00 26 1019.4
20260830181420 86 115 4.3 13.9 0.00 0.00 0.00 28 1019.6
20260830180914 86 110 4.3 13.9 0.00 0.00 0.00 27 1019.6
20260830180411 86 200 6.1 19.1 0.00 0.00 0.00 27 1019.6
20260830175912 86 101 6.1 19.1 0.00 0.00 0.00 28 1019.6
20260830175411 87 107 5.2 14.8 0.00 0.00 0.00 28 1019.6
20260830174913 87 355 5.2 14.8 0.00 0.00 0.00 28 1019.4
20260830174410 86 123 5.2 13.0 0.00 0.00 0.00 28 1019.4
20260830173911 86 154 6.1 18.2 0.00 0.00 0.00 29 1019.6
20260830173409 85 92 6.1 18.2 0.00 0.00 0.00 30 1019.4
20260830172908 85 89 5.2 14.8 0.00 0.00 0.00 31 1019.6
20260830172410 85 304 5.2 14.8 0.00 0.00 0.00 30 1019.6
20260830171909 85 172 5.2 13.0 0.00 0.00 0.00 31 1019.6
20260830171410 85 198 5.2 16.5 0.00 0.00 0.00 31 1019.6
20260830170902 85 287 5.2 16.5 0.00 0.00 0.00 32 1019.6
20260830170401 85 116 5.2 13.9 0.00 0.00 0.00 31 1019.6
20260830165903 84 184 5.2 13.9 0.00 0.00 0.00 32 1019.4
20260830165406 85 69 4.3 13.9 0.00 0.00 0.00 32 1019.6
20260830164900 84 146 4.3 10.4 0.00 0.00 0.00 33 1019.4
20260830164359 84 109 3.5 13.9 0.00 0.00 0.00 33 1019.3
20260830163900 84 179 2.6 13.9 0.00 0.00 0.00 34 1019.4
20260830163357 83 207 4.3 17.4 0.00 0.00 0.00 34 1019.3
20260830162857 83 200 6.1 18.2 0.00 0.00 0.00 34 1019.2
20260830162355 83 137 6.1 18.2 0.00 0.00 0.00 34 1019.3
20260830160855 82 117 5.2 17.4 0.00 0.00 0.00 35 1019.3
20260830160355 82 205 5.2 12.2 0.00 0.00 0.00 34 1019.2
20260830155855 82 65 6.1 14.8 0.00 0.00 0.00 36 1019.2
20260830155400 81 176 7.0 16.5 0.00 0.00 0.00 36 1019.1
20260830154353 81 172 6.1 15.6 0.00 0.00 0.00 37 1019.2
20260830153339 81 220 6.1 16.5 0.00 0.00 0.00 37 1019.2
20260830152833 80 276 6.1 21.7 0.00 0.00 0.00 37 1019.4
20260830152330 80 159 6.1 21.7 0.00 0.00 0.00 38 1019.4
20260830151821 80 144 7.0 15.6 0.00 0.00 0.00 39 1019.3
20260830151315 79 219 7.0 15.6 0.00 0.00 0.00 39 1019.2
20260830150809 80 172 5.2 13.0 0.00 0.00 0.00 39 1019.2
20260830150303 80 158 5.2 14.8 0.00 0.00 0.00 39 1019.2
20260830145757 79 185 6.1 14.8 0.00 0.00 0.00 40 1019.1
20260830145252 79 192 6.1 16.5 0.00 0.00 0.00 41 1019.1
20260830144745 79 187 6.1 16.5 0.00 0.00 0.00 42 1019.1
20260830144239 78 200 6.1 15.6 0.00 0.00 0.00 42 1019.1
20260830143733 78 160 5.2 14.8 0.00 0.00 0.00 42 1019.1
20260830143227 78 167 6.1 14.8 0.00 0.00 0.00 43 1019.1
20260830142721 77 123 7.0 14.8 0.00 0.00 0.00 43 1019.1
20260830142218 77 217 7.0 16.5 0.00 0.00 0.00 44 1019.0
20260830141720 77 190 6.1 16.5 0.00 0.00 0.00 44 1019.1
20260830140717 77 171 4.3 15.6 0.00 0.00 0.00 44 1019.1
20260830140219 76 186 4.3 15.6 0.00 0.00 0.00 45 1019.1
20260830135719 76 108 5.2 12.2 0.00 0.00 0.00 45 1019.0
20260830135219 76 198 3.5 12.2 0.00 0.00 0.00 46 1019.0
20260830133620 0 0.0 0.0 0.00 0.00 0.00 1018.9
20260830133115 0 0.0 0.0 0.00 0.00 0.00 1018.8
20260830131411 0 0.0 0.0 0.00 0.00 0.00 1018.6
20260830130822 0 0.0 0.0 0.00 0.00 0.00 1018.5
20260830125731 0 0.0 0.0 0.00 0.00 0.00 1018.4
20260830125225 0 0.0 0.0 0.00 0.00 0.00 1018.5
20260830124724 0 0.0 0.0 0.00 0.00 0.00 1018.4
20260830123721 0 0.0 0.0 0.00 0.00 0.00 1018.2
20260830123208 0 206 3.5 17.4 0.00 0.00 0.00 1018.2
20260830122709 76 206 3.5 17.4 0.00 0.00 0.00 41 1018.2
20260830121650 76 162 6.1 17.4 0.00 0.00 0.00 41 1018.0
20260830121144 76 191 5.2 12.2 0.00 0.00 0.00 40 1018.1
20260830120641 77 199 5.2 13.9 0.00 0.00 0.00 39 1018.0
20260830120135 77 246 6.1 13.9 0.00 0.00 0.00 38 1018.0
20260830115629 77 129 6.1 15.6 0.00 0.00 0.00 37 1018.0
20260830115123 77 179 4.3 17.4 0.00 0.00 0.00 36 1017.8
20260830114617 77 189 3.5 18.2 0.00 0.00 0.00 35 1018.0
20260830114111 77 194 3.5 13.9 0.00 0.00 0.00 34 1018.0
20260830113100 78 187 4.3 13.0 0.00 0.00 0.00 32 1018.0
20260830112554 78 221 3.5 13.0 0.00 0.00 0.00 31 1017.7
20260830112047 78 217 2.6 7.0 0.00 0.00 0.00 30 1017.8
20260830111541 78 214 3.5 10.4 0.00 0.00 0.00 29 1017.8
20260830111036 79 183 5.2 13.0 0.00 0.00 0.00 29 1017.7
20260830110024 79 157 5.2 11.3 0.00 0.00 0.00 28 1017.6
20260830105517 79 208 5.2 12.2 0.00 0.00 0.00 28 1017.6
20260830105012 79 211 6.1 13.9 0.00 0.00 0.00 28 1017.6
20260830104506 80 158 6.1 13.9 0.00 0.00 0.00 28 1017.5
20260830103958 80 188 6.1 11.3 0.00 0.00 0.00 27 1017.5
20260830103459 80 151 5.2 10.4 0.00 0.00 0.00 27 1017.5
20260830102959 80 172 4.3 13.0 0.00 0.00 0.00 27 1017.5
20260830102502 79 184 2.6 13.0 0.00 0.00 0.00 28 1017.5
20260830102003 79 198 2.6 8.7 0.00 0.00 0.00 27 1017.5
20260830101458 79 141 2.6 8.7 0.00 0.00 0.00 27 1017.5
20260830100959 79 206 2.6 7.8 0.00 0.00 0.00 27 1017.5
20260830100459 80 176 1.7 7.0 0.00 0.00 0.00 27 1017.5
20260830095953 80 188 2.6 7.8 0.00 0.00 0.00 27 1017.4
20260830095454 80 219 3.5 8.7 0.00 0.00 0.00 26 1017.4
20260830094452 80 158 2.6 11.3 0.00 0.00 0.00 26 1017.3
20260830093952 80 214 3.5 11.3 0.00 0.00 0.00 26 1017.3
20260830093452 80 184 3.5 12.2 0.00 0.00 0.00 25 1017.3
20260830091951 81 150 4.3 10.4 0.00 0.00 0.00 24 1017.0
20260830091451 81 134 4.3 10.4 0.00 0.00 0.00 24 1017.0
20260830090950 81 215 4.3 12.2 0.00 0.00 0.00 24 1017.0
20260830090451 81 134 4.3 12.2 0.00 0.00 0.00 24 1017.0
20260830085952 81 199 4.3 12.2 0.00 0.00 0.00 24 1017.0
20260830085453 81 167 3.5 10.4 0.00 0.00 0.00 24 1017.0
20260830084951 81 136 4.3 11.3 0.00 0.00 0.00 24 1017.0
20260830083952 82 163 4.3 11.3 0.00 0.00 0.00 23 1017.2
20260830082951 82 201 4.3 10.4 0.00 0.00 0.00 23 1017.0
20260830082452 83 178 4.3 9.6 0.00 0.00 0.00 23 1017.0
20260830081448 83 162 4.3 12.2 0.00 0.00 0.00 22 1017.0
20260830080949 83 135 5.2 12.2 0.00 0.00 0.00 22 1017.0
20260830080449 83 205 3.5 12.2 0.00 0.00 0.00 22 1017.2
20260830074949 83 134 3.5 7.8 0.00 0.00 0.00 22 1017.3
20260830074450 84 212 4.3 10.4 0.00 0.00 0.00 22 1017.2
20260830073446 84 211 3.5 9.6 0.00 0.00 0.00 21 1017.2
20260830072446 84 180 5.2 12.2 0.00 0.00 0.00 21 1017.2
20260830071444 84 181 5.2 15.6 0.00 0.00 0.00 21 1017.4
20260830070943 84 163 4.3 15.6 0.00 0.00 0.00 21 1017.4
20260830070437 84 153 3.5 9.6 0.00 0.00 0.00 21 1017.4
20260830065426 85 136 4.3 9.6 0.00 0.00 0.00 20 1017.4
20260830064919 85 174 5.2 11.3 0.00 0.00 0.00 20 1017.4
20260830064413 85 127 5.2 13.0 0.00 0.00 0.00 20 1017.5
20260830063908 85 224 5.2 13.0 0.00 0.00 0.00 20 1017.5
20260830063401 84 163 4.3 11.3 0.00 0.00 0.00 20 1017.5
20260830062857 85 158 4.3 13.9 0.00 0.00 0.00 20 1017.5
20260830062356 85 218 4.3 13.9 0.00 0.00 0.00 20 1017.5
20260830061857 85 217 4.3 11.3 0.00 0.00 0.00 20 1017.5
20260830060854 85 188 4.3 10.4 0.00 0.00 0.00 20 1017.5
20260830060354 85 147 4.3 11.3 0.00 0.00 0.00 19 1017.5
20260830055853 85 178 4.3 11.3 0.00 0.00 0.00 19 1017.5
20260830055350 85 121 5.2 18.2 0.00 0.00 0.00 19 1017.5
20260830054850 85 94 6.1 18.2 0.00 0.00 0.00 19 1017.5
20260830054352 84 125 6.1 13.9 0.00 0.00 0.00 19 1017.6
20260830053851 84 162 5.2 13.9 0.00 0.00 0.00 19 1017.5
20260830053351 84 193 5.2 12.2 0.00 0.00 0.00 19 1017.5
20260830052850 84 137 5.2 12.2 0.00 0.00 0.00 19 1017.5
20260830052348 85 91 5.2 9.6 0.00 0.00 0.00 19 1017.7
20260830051848 85 181 4.3 11.3 0.00 0.00 0.00 19 1017.6
20260830051349 85 176 4.3 13.9 0.00 0.00 0.00 18 1017.6